| time (UTC) | temp F | wind direction | speed MPH | gust MPH | rain 1hr in | rain 24hr in | rain mn in | humidity % | barometer mb |
| 20260506222027 | 71 | 243 | 0.0 | 3.0 | 0.00 | 0.00 | 0.00 | 1021.7 | |
| 20260506221536 | 71 | 64 | 1.0 | 3.0 | 0.00 | 0.00 | 0.00 | 1021.8 | |
| 20260506221026 | 74 | 322 | 0.0 | 4.0 | 0.00 | 0.00 | 0.00 | 1021.8 | |
| 20260506220527 | 73 | 227 | 1.0 | 4.0 | 0.00 | 0.00 | 0.00 | 1021.7 | |
| 20260506220042 | 75 | 99 | 1.0 | 3.0 | 0.00 | 0.00 | 0.00 | 1021.7 | |
| 20260506215526 | 79 | 227 | 1.0 | 3.0 | 0.00 | 0.00 | 0.00 | 1021.7 | |
| 20260506215026 | 77 | 99 | 1.0 | 4.0 | 0.00 | 0.00 | 0.00 | 1021.6 | |
| 20260506214540 | 74 | 0 | 1.0 | 6.0 | 0.00 | 0.00 | 0.00 | 1021.7 | |
| 20260506214027 | 74 | 338 | 1.0 | 6.0 | 0.00 | 0.00 | 0.00 | 1021.8 | |
| 20260506213526 | 74 | 221 | 0.0 | 4.0 | 0.00 | 0.00 | 0.00 | 1021.7 | |
| 20260506213037 | 70 | 0 | 1.0 | 5.0 | 0.00 | 0.00 | 0.00 | 1021.9 | |
| 20260506212526 | 68 | 268 | 1.0 | 5.0 | 0.00 | 0.00 | 0.00 | 1022.1 | |
| 20260506212026 | 68 | 268 | 1.0 | 5.0 | 0.00 | 0.00 | 0.00 | 1022.1 | |
| 20260506211544 | 67 | 355 | 1.0 | 5.0 | 0.00 | 0.00 | 0.00 | 1022.2 | |
| 20260506211023 | 67 | 55 | 1.0 | 4.0 | 0.00 | 0.00 | 0.00 | 1022.1 | |
| 20260506210527 | 67 | 291 | 1.0 | 5.0 | 0.00 | 0.00 | 0.00 | 1022.0 | |
| 20260506210044 | 67 | 355 | 1.0 | 5.0 | 0.00 | 0.00 | 0.00 | 1022.0 | |
| 20260506205525 | 70 | 355 | 1.0 | 5.0 | 0.00 | 0.00 | 0.00 | 1022.0 | |
| 20260506205026 | 69 | 268 | 1.0 | 5.0 | 0.00 | 0.00 | 0.00 | 1022.0 | |
| 20260506204538 | 70 | 0 | 1.0 | 4.0 | 0.00 | 0.00 | 0.00 | 1022.0 | |
| 20260506204026 | 70 | 116 | 1.0 | 4.0 | 0.00 | 0.00 | 0.00 | 1022.0 | |
| 20260506203526 | 69 | 0 | 1.0 | 4.0 | 0.00 | 0.00 | 0.00 | 1022.1 | |
| 20260506203044 | 70 | 243 | 1.0 | 4.0 | 0.00 | 0.00 | 0.00 | 1022.0 | |
| 20260506202527 | 69 | 227 | 1.0 | 4.0 | 0.00 | 0.00 | 0.00 | 1022.0 | |
| 20260506202027 | 68 | 39 | 1.0 | 5.0 | 0.00 | 0.00 | 0.00 | 1022.0 | |
| 20260506201537 | 70 | 183 | 1.0 | 5.0 | 0.00 | 0.00 | 0.00 | 1022.1 | |
| 20260506201026 | 73 | 324 | 1.0 | 4.0 | 0.00 | 0.00 | 0.00 | 1022.1 | |
| 20260506200526 | 69 | 107 | 0.0 | 3.0 | 0.00 | 0.00 | 0.00 | 1022.2 | |
| 20260506200117 | 66 | 0 | 0.0 | 4.0 | 0.00 | 0.00 | 0.00 | 1022.2 | |
| 20260506195526 | 64 | 243 | 1.0 | 4.0 | 0.00 | 0.00 | 0.00 | 1022.3 | |
| 20260506195028 | 65 | 311 | 1.0 | 3.0 | 0.00 | 0.00 | 0.00 | 1022.4 | |
| 20260506194539 | 67 | 283 | 0.0 | 4.0 | 0.00 | 0.00 | 0.00 | 1022.3 | |
| 20260506194028 | 66 | 141 | 1.0 | 4.0 | 0.00 | 0.00 | 0.00 | 1022.3 | |
| 20260506193526 | 66 | 280 | 1.0 | 4.0 | 0.00 | 0.00 | 0.00 | 1022.3 | |
| 20260506193036 | 68 | 99 | 1.0 | 5.0 | 0.00 | 0.00 | 0.00 | 1022.4 | |
| 20260506192526 | 70 | 9 | 1.0 | 5.0 | 0.00 | 0.00 | 0.00 | 1022.2 | |
| 20260506192026 | 68 | 0 | 1.0 | 5.0 | 0.00 | 0.00 | 0.00 | 1022.1 | |
| 20260506191536 | 64 | 193 | 1.0 | 4.0 | 0.00 | 0.00 | 0.00 | 1022.2 | |
| 20260506191026 | 66 | 55 | 1.0 | 4.0 | 0.00 | 0.00 | 0.00 | 1022.2 | |
| 20260506190528 | 66 | 141 | 1.0 | 7.0 | 0.00 | 0.00 | 0.00 | 1022.2 | |
| 20260506190036 | 67 | 227 | 1.0 | 7.0 | 0.00 | 0.00 | 0.00 | 1022.3 | |
| 20260506185526 | 68 | 124 | 1.0 | 4.0 | 0.00 | 0.00 | 0.00 | 1022.2 | |
| 20260506185027 | 69 | 295 | 1.0 | 5.0 | 0.00 | 0.00 | 0.00 | 1022.1 | |
| 20260506184540 | 66 | 268 | 1.0 | 5.0 | 0.00 | 0.00 | 0.00 | 1022.2 | |
| 20260506184024 | 64 | 0 | 1.0 | 5.0 | 0.00 | 0.00 | 0.00 | 1022.1 | |
| 20260506183527 | 64 | 99 | 0.0 | 4.0 | 0.00 | 0.00 | 0.00 | 1022.2 | |
| 20260506183037 | 63 | 124 | 1.0 | 4.0 | 0.00 | 0.00 | 0.00 | 1022.2 | |
| 20260506182526 | 64 | 0 | 0.0 | 4.0 | 0.00 | 0.00 | 0.00 | 1022.1 | |
| 20260506182025 | 64 | 0 | 0.0 | 4.0 | 0.00 | 0.00 | 0.00 | 1022.1 | |
| 20260506181538 | 61 | 120 | 1.0 | 4.0 | 0.00 | 0.00 | 0.00 | 1022.1 | |
| 20260506181027 | 60 | 243 | 1.0 | 5.0 | 0.00 | 0.00 | 0.00 | 1022.2 | |
| 20260506180529 | 61 | 275 | 1.0 | 5.0 | 0.00 | 0.00 | 0.00 | 1022.1 | |
| 20260506180052 | 61 | 277 | 0.0 | 3.0 | 0.00 | 0.00 | 0.00 | 1022.0 | |
| 20260506175529 | 62 | 254 | 1.0 | 3.0 | 0.00 | 0.00 | 0.00 | 1022.0 | |
| 20260506175023 | 62 | 291 | 1.0 | 3.0 | 0.00 | 0.00 | 0.00 | 1021.9 | |
| 20260506174536 | 63 | 0 | 1.0 | 5.0 | 0.00 | 0.00 | 0.00 | 1021.8 | |
| 20260506174026 | 62 | 268 | 0.0 | 5.0 | 0.00 | 0.00 | 0.00 | 1021.9 | |
| 20260506173525 | 60 | 297 | 2.0 | 7.0 | 0.00 | 0.00 | 0.00 | 1021.9 | |
| 20260506173041 | 60 | 0 | 1.0 | 7.0 | 0.00 | 0.00 | 0.00 | 1021.8 | |
| 20260506172526 | 60 | 288 | 2.0 | 7.0 | 0.00 | 0.00 | 0.00 | 1022.0 | |
| 20260506172030 | 58 | 201 | 2.0 | 7.0 | 0.00 | 0.00 | 0.00 | 1021.8 | |
| 20260506171549 | 58 | 259 | 1.0 | 6.0 | 0.00 | 0.00 | 0.00 | 1021.9 | |
| 20260506171026 | 58 | 0 | 1.0 | 6.0 | 0.00 | 0.00 | 0.00 | 1021.8 | |
| 20260506170523 | 58 | 322 | 1.0 | 4.0 | 0.00 | 0.00 | 0.00 | 1021.9 | |
| 20260506170038 | 58 | 243 | 1.0 | 5.0 | 0.00 | 0.00 | 0.00 | 1021.8 | |
| 20260506165526 | 58 | 141 | 1.0 | 5.0 | 0.00 | 0.00 | 0.00 | 1021.9 | |
| 20260506165027 | 58 | 243 | 1.0 | 5.0 | 0.00 | 0.00 | 0.00 | 1021.8 | |
| 20260506164538 | 58 | 0 | 1.0 | 6.0 | 0.00 | 0.00 | 0.00 | 1021.8 | |
| 20260506164026 | 58 | 22 | 1.0 | 6.0 | 0.00 | 0.00 | 0.00 | 1021.7 | |
| 20260506163526 | 57 | 291 | 2.0 | 6.0 | 0.00 | 0.00 | 0.00 | 1021.5 | |
| 20260506163045 | 60 | 39 | 0.0 | 4.0 | 0.00 | 0.00 | 0.00 | 1021.6 | |
| 20260506162526 | 60 | 322 | 1.0 | 4.0 | 0.00 | 0.00 | 0.00 | 1021.5 | |
| 20260506162026 | 62 | 99 | 0.0 | 2.0 | 0.00 | 0.00 | 0.00 | 1021.5 | |
| 20260506161553 | 63 | 158 | 0.0 | 4.0 | 0.00 | 0.00 | 0.00 | 1021.3 | |
| 20260506161026 | 62 | 99 | 0.0 | 4.0 | 0.00 | 0.00 | 0.00 | 1021.4 | |
| 20260506160529 | 61 | 64 | 1.0 | 4.0 | 0.00 | 0.00 | 0.00 | 1021.1 | |
| 20260506160043 | 59 | 99 | 0.0 | 6.0 | 0.00 | 0.00 | 0.00 | 1021.0 | |
| 20260506155525 | 58 | 141 | 1.0 | 6.0 | 0.00 | 0.00 | 0.00 | 1021.0 | |
| 20260506155026 | 55 | 136 | 3.0 | 8.0 | 0.00 | 0.00 | 0.00 | 1021.2 | |
| 20260506154541 | 54 | 175 | 3.0 | 9.0 | 0.00 | 0.00 | 0.00 | 1021.6 | |
| 20260506154025 | 54 | 285 | 3.0 | 9.0 | 0.00 | 0.00 | 0.00 | 1021.8 | |
| 20260506153526 | 54 | 277 | 2.0 | 8.0 | 0.00 | 0.00 | 0.00 | 1021.8 | |
| 20260506153041 | 55 | 283 | 1.0 | 7.0 | 0.00 | 0.00 | 0.00 | 1021.8 | |
| 20260506152526 | 55 | 280 | 1.0 | 5.0 | 0.00 | 0.00 | 0.00 | 1021.8 | |
| 20260506152025 | 55 | 106 | 1.0 | 5.0 | 0.00 | 0.00 | 0.00 | 1021.9 | |
| 20260506151537 | 55 | 141 | 1.0 | 4.0 | 0.00 | 0.00 | 0.00 | 1021.8 | |
| 20260506151026 | 56 | 0 | 1.0 | 4.0 | 0.00 | 0.00 | 0.00 | 1021.7 | |
| 20260506150525 | 55 | 157 | 0.0 | 7.0 | 0.00 | 0.00 | 0.00 | 1021.6 | |
| 20260506150037 | 55 | 173 | 2.0 | 7.0 | 0.00 | 0.00 | 0.00 | 1021.6 | |
| 20260506145525 | 55 | 126 | 1.0 | 6.0 | 0.00 | 0.00 | 0.00 | 1021.6 | |
| 20260506145025 | 56 | 276 | 1.0 | 4.0 | 0.00 | 0.00 | 0.00 | 1021.5 | |
| 20260506144540 | 56 | 131 | 0.0 | 4.0 | 0.00 | 0.00 | 0.00 | 1021.3 | |
| 20260506144028 | 56 | 0 | 1.0 | 4.0 | 0.00 | 0.00 | 0.00 | 1021.1 | |
| 20260506143525 | 56 | 281 | 1.0 | 3.0 | 0.00 | 0.00 | 0.00 | 1021.0 | |
| 20260506143037 | 56 | 268 | 0.0 | 3.0 | 0.00 | 0.00 | 0.00 | 1021.0 | |
| 20260506142528 | 56 | 234 | 1.0 | 3.0 | 0.00 | 0.00 | 0.00 | 1021.0 | |
| 20260506142025 | 56 | 0 | 1.0 | 3.0 | 0.00 | 0.00 | 0.00 | 1021.1 | |
| 20260506141538 | 56 | 124 | 1.0 | 3.0 | 0.00 | 0.00 | 0.00 | 1021.0 | |
| 20260506141026 | 55 | 99 | 1.0 | 5.0 | 0.00 | 0.00 | 0.00 | 1021.0 | |
| 20260506140526 | 55 | 183 | 0.0 | 6.0 | 0.00 | 0.00 | 0.00 | 1021.1 | |
| 20260506140053 | 55 | 60 | 1.0 | 7.0 | 0.00 | 0.00 | 0.00 | 1021.0 | |
| 20260506135530 | 54 | 0 | 3.0 | 7.0 | 0.00 | 0.00 | 0.00 | 1020.9 | |
| 20260506135029 | 55 | 257 | 3.0 | 7.0 | 0.00 | 0.00 | 0.00 | 1020.7 | |
| 20260506134606 | 55 | 325 | 1.0 | 6.0 | 0.00 | 0.00 | 0.00 | 1020.8 | |
| 20260506134026 | 54 | 311 | 2.0 | 7.0 | 0.00 | 0.00 | 0.00 | 1020.6 | |
| 20260506133526 | 54 | 283 | 4.0 | 7.0 | 0.00 | 0.00 | 0.00 | 1020.6 | |
| 20260506133038 | 54 | 286 | 4.0 | 7.0 | 0.00 | 0.00 | 0.00 | 1020.7 | |
| 20260506132527 | 54 | 307 | 2.0 | 6.0 | 0.00 | 0.00 | 0.00 | 1020.5 | |
| 20260506132026 | 54 | 276 | 3.0 | 6.0 | 0.00 | 0.00 | 0.00 | 1020.5 | |
| 20260506131546 | 54 | 295 | 2.0 | 6.0 | 0.00 | 0.00 | 0.00 | 1020.6 | |
| 20260506131027 | 54 | 280 | 2.0 | 8.0 | 0.00 | 0.00 | 0.00 | 1020.6 | |
| 20260506130532 | 54 | 261 | 3.0 | 8.0 | 0.00 | 0.00 | 0.00 | 1020.5 | |
| 20260506130044 | 54 | 290 | 5.0 | 8.0 | 0.00 | 0.00 | 0.00 | 1020.4 | |
| 20260506125528 | 54 | 268 | 1.0 | 6.0 | 0.00 | 0.00 | 0.00 | 1020.4 | |
| 20260506125026 | 54 | 283 | 1.0 | 6.0 | 0.00 | 0.00 | 0.00 | 1020.3 | |
| 20260506124536 | 54 | 286 | 2.0 | 6.0 | 0.00 | 0.00 | 0.00 | 1020.5 | |
| 20260506124026 | 54 | 286 | 2.0 | 5.0 | 0.00 | 0.00 | 0.00 | 1020.4 | |
| 20260506123526 | 55 | 283 | 0.0 | 5.0 | 0.00 | 0.00 | 0.00 | 1020.4 | |
| 20260506123045 | 55 | 22 | 1.0 | 5.0 | 0.00 | 0.00 | 0.00 | 1020.5 | |
| 20260506122527 | 55 | 0 | 0.0 | 5.0 | 0.00 | 0.00 | 0.00 | 1020.4 | |
| 20260506122026 | 55 | 201 | 2.0 | 7.0 | 0.00 | 0.00 | 0.00 | 1020.4 | |
| 20260506121539 | 55 | 268 | 2.0 | 7.0 | 0.00 | 0.00 | 0.00 | 1020.2 | |
| 20260506121026 | 55 | 268 | 1.0 | 7.0 | 0.00 | 0.00 | 0.00 | 1020.3 | |
| 20260506120530 | 55 | 99 | 1.0 | 7.0 | 0.00 | 0.00 | 0.00 | 1020.3 | |
| 20260506120037 | 55 | 276 | 1.0 | 7.0 | 0.00 | 0.00 | 0.00 | 1020.3 | |
| 20260506115526 | 55 | 99 | 1.0 | 5.0 | 0.00 | 0.00 | 0.00 | 1020.2 | |
| 20260506115027 | 55 | 0 | 1.0 | 6.0 | 0.00 | 0.00 | 0.00 | 1020.2 | |
| 20260506114544 | 55 | 285 | 1.0 | 6.0 | 0.00 | 0.00 | 0.00 | 1020.1 | |
| 20260506114026 | 55 | 259 | 2.0 | 6.0 | 0.00 | 0.00 | 0.00 | 1020.0 | |
| 20260506113526 | 55 | 12 | 2.0 | 6.0 | 0.00 | 0.00 | 0.00 | 1020.0 | |
| 20260506113039 | 55 | 0 | 1.0 | 4.0 | 0.00 | 0.00 | 0.00 | 1019.9 | |
| 20260506112527 | 56 | 200 | 1.0 | 5.0 | 0.00 | 0.00 | 0.00 | 1019.8 | |
| 20260506112026 | 56 | 99 | 1.0 | 5.0 | 0.00 | 0.00 | 0.00 | 1019.9 | |
| 20260506111537 | 56 | 305 | 1.0 | 5.0 | 0.00 | 0.00 | 0.00 | 1019.9 | |
| 20260506111027 | 55 | 0 | 0.0 | 6.0 | 0.00 | 0.00 | 0.00 | 1019.6 | |
| 20260506110526 | 55 | 0 | 2.0 | 6.0 | 0.00 | 0.00 | 0.00 | 1019.7 | |
| 20260506110041 | 55 | 286 | 2.0 | 6.0 | 0.00 | 0.00 | 0.00 | 1019.6 | |
| 20260506105529 | 55 | 112 | 2.0 | 5.0 | 0.00 | 0.00 | 0.00 | 1019.5 | |
| 20260506105026 | 55 | 311 | 1.0 | 6.0 | 0.00 | 0.00 | 0.00 | 1019.4 | |
| 20260506104541 | 55 | 243 | 2.0 | 6.0 | 0.00 | 0.00 | 0.00 | 1019.3 | |
| 20260506104029 | 56 | 291 | 1.0 | 6.0 | 0.00 | 0.00 | 0.00 | 1019.3 | |
| 20260506103526 | 56 | 288 | 2.0 | 6.0 | 0.00 | 0.00 | 0.00 | 1019.2 | |
| 20260506103044 | 56 | 288 | 4.0 | 6.0 | 0.00 | 0.00 | 0.00 | 1019.1 | |
| 20260506102529 | 56 | 285 | 2.0 | 7.0 | 0.00 | 0.00 | 0.00 | 1019.1 | |
| 20260506102027 | 56 | 292 | 2.0 | 7.0 | 0.00 | 0.00 | 0.00 | 1019.1 | |
| 20260506101536 | 56 | 290 | 2.0 | 6.0 | 0.00 | 0.00 | 0.00 | 1019.1 | |
| 20260506101026 | 56 | 64 | 3.0 | 6.0 | 0.00 | 0.00 | 0.00 | 1019.3 | |
| 20260506100526 | 56 | 243 | 2.0 | 4.0 | 0.00 | 0.00 | 0.00 | 1019.1 | |
| 20260506100037 | 56 | 158 | 1.0 | 4.0 | 0.00 | 0.00 | 0.00 | 1019.1 | |
| 20260506095526 | 56 | 255 | 1.0 | 5.0 | 0.00 | 0.00 | 0.00 | 1019.1 | |
| 20260506095027 | 56 | 299 | 2.0 | 5.0 | 0.00 | 0.00 | 0.00 | 1019.1 | |
| 20260506094541 | 56 | 290 | 2.0 | 5.0 | 0.00 | 0.00 | 0.00 | 1019.1 | |
| 20260506094030 | 56 | 295 | 2.0 | 5.0 | 0.00 | 0.00 | 0.00 | 1019.0 | |
| 20260506093527 | 56 | 278 | 3.0 | 5.0 | 0.00 | 0.00 | 0.00 | 1019.1 | |
| 20260506093051 | 57 | 305 | 1.0 | 4.0 | 0.00 | 0.00 | 0.00 | 1019.1 | |
| 20260506092528 | 57 | 298 | 1.0 | 5.0 | 0.00 | 0.00 | 0.00 | 1018.9 | |
| 20260506092028 | 57 | 280 | 2.0 | 5.0 | 0.00 | 0.00 | 0.00 | 1018.9 | |
| 20260506091537 | 57 | 282 | 2.0 | 5.0 | 0.00 | 0.00 | 0.00 | 1019.0 | |
| 20260506091027 | 57 | 0 | 1.0 | 5.0 | 0.00 | 0.00 | 0.00 | 1019.0 | |
| 20260506090526 | 57 | 292 | 1.0 | 4.0 | 0.00 | 0.00 | 0.00 | 1019.0 | |
| 20260506090036 | 57 | 290 | 1.0 | 4.0 | 0.00 | 0.00 | 0.00 | 1018.9 | |
| 20260506085527 | 57 | 0 | 1.0 | 4.0 | 0.00 | 0.00 | 0.00 | 1018.9 | |
| 20260506085027 | 58 | 243 | 1.0 | 3.0 | 0.00 | 0.00 | 0.00 | 1018.9 | |
| 20260506084536 | 58 | 329 | 0.0 | 3.0 | 0.00 | 0.00 | 0.00 | 1019.1 | |
| 20260506084027 | 58 | 0 | 0.0 | 3.0 | 0.00 | 0.00 | 0.00 | 1019.1 | |
| 20260506083527 | 58 | 278 | 1.0 | 5.0 | 0.00 | 0.00 | 0.00 | 1018.9 | |
| 20260506083042 | 58 | 124 | 1.0 | 7.0 | 0.00 | 0.00 | 0.00 | 1018.9 | |
| 20260506082527 | 58 | 276 | 2.0 | 7.0 | 0.00 | 0.00 | 0.00 | 1019.0 | |
| 20260506082033 | 58 | 290 | 2.0 | 7.0 | 0.00 | 0.00 | 0.00 | 1018.9 | |
| 20260506081546 | 58 | 210 | 2.0 | 8.0 | 0.00 | 0.00 | 0.00 | 1018.9 | |
| 20260506081028 | 58 | 105 | 3.0 | 8.0 | 0.00 | 0.00 | 0.00 | 1018.7 | |
| 20260506080529 | 58 | 297 | 1.0 | 5.0 | 0.00 | 0.00 | 0.00 | 1018.8 | |
| 20260506073526 | 58 | 302 | 1.0 | 5.0 | 0.00 | 0.00 | 0.00 | 1018.7 | |
| 20260506073043 | 58 | 268 | 1.0 | 5.0 | 0.00 | 0.00 | 0.00 | 1018.6 | |
| 20260506072526 | 59 | 39 | 0.0 | 6.0 | 0.00 | 0.00 | 0.00 | 1018.5 | |
| 20260506072029 | 59 | 302 | 3.0 | 6.0 | 0.00 | 0.00 | 0.00 | 1018.5 | |
| 20260506071545 | 59 | 243 | 3.0 | 6.0 | 0.00 | 0.00 | 0.00 | 1018.5 | |
| 20260506071027 | 59 | 257 | 2.0 | 6.0 | 0.00 | 0.00 | 0.00 | 1018.5 | |
| 20260506070528 | 59 | 222 | 3.0 | 6.0 | 0.00 | 0.00 | 0.00 | 1018.4 | |
| 20260506062027 | 59 | 261 | 1.0 | 3.0 | 0.00 | 0.00 | 0.00 | 1018.3 | |
| 20260506061544 | 59 | 322 | 1.0 | 4.0 | 0.00 | 0.00 | 0.00 | 1018.3 | |
| 20260506061027 | 59 | 192 | 1.0 | 4.0 | 0.00 | 0.00 | 0.00 | 1018.2 | |
| 20260506060528 | 59 | 261 | 1.0 | 4.0 | 0.00 | 0.00 | 0.00 | 1018.2 | |
| 20260506051027 | 60 | 291 | 5.0 | 9.0 | 0.00 | 0.00 | 0.00 | 1017.9 | |
| 20260506050528 | 60 | 288 | 1.0 | 6.0 | 0.00 | 0.00 | 0.00 | 1017.9 | |
| 20260506045027 | 59 | 170 | 1.0 | 4.0 | 0.00 | 0.00 | 0.00 | 1017.7 | |
| 20260506044539 | 59 | 252 | 2.0 | 4.0 | 0.00 | 0.00 | 0.00 | 1017.8 | |
| 20260506044029 | 59 | 0 | 1.0 | 4.0 | 0.00 | 0.00 | 0.00 | 1017.7 | |
| 20260506043526 | 60 | 183 | 0.0 | 2.0 | 0.00 | 0.00 | 0.00 | 1017.7 | |
| 20260506043109 | 60 | 39 | 0.0 | 2.0 | 0.00 | 0.00 | 0.00 | 1017.7 | |
| 20260506042526 | 59 | 302 | 1.0 | 2.0 | 0.00 | 0.00 | 0.00 | 1017.6 | |
| 20260506042025 | 59 | 311 | 0.0 | 2.0 | 0.00 | 0.00 | 0.00 | 1017.4 | |
| 20260506041539 | 59 | 227 | 1.0 | 2.0 | 0.00 | 0.00 | 0.00 | 1017.5 | |
| 20260506041027 | 58 | 183 | 1.0 | 4.0 | 0.00 | 0.00 | 0.00 | 1017.4 | |
| 20260506040526 | 58 | 227 | 1.0 | 4.0 | 0.00 | 0.00 | 0.00 | 1017.5 | |
| 20260506040038 | 58 | 250 | 2.0 | 4.0 | 0.00 | 0.00 | 0.00 | 1017.4 | |
| 20260506035527 | 59 | 254 | 2.0 | 4.0 | 0.00 | 0.00 | 0.00 | 1017.3 | |
| 20260506035026 | 60 | 344 | 1.0 | 4.0 | 0.00 | 0.00 | 0.00 | 1017.3 | |
| 20260506034537 | 59 | 278 | 2.0 | 4.0 | 0.00 | 0.00 | 0.00 | 1017.2 | |
| 20260506034027 | 59 | 252 | 2.0 | 4.0 | 0.00 | 0.00 | 0.00 | 1017.1 | |
| 20260506033528 | 60 | 277 | 0.0 | 2.0 | 0.00 | 0.00 | 0.00 | 1017.0 | |
| 20260506033039 | 60 | 227 | 1.0 | 2.0 | 0.00 | 0.00 | 0.00 | 1017.0 | |
| 20260506032524 | 61 | 283 | 0.0 | 2.0 | 0.00 | 0.00 | 0.00 | 1017.0 | |
| 20260506032024 | 61 | 0 | 0.0 | 2.0 | 0.00 | 0.00 | 0.00 | 1017.0 | |
| 20260506031539 | 61 | 0 | 0.0 | 2.0 | 0.00 | 0.00 | 0.00 | 1016.9 | |
| 20260506031028 | 61 | 295 | 0.0 | 3.0 | 0.00 | 0.00 | 0.00 | 1016.9 | |
| 20260506030527 | 60 | 295 | 1.0 | 4.0 | 0.00 | 0.00 | 0.00 | 1016.9 | |
| 20260506030037 | 60 | 0 | 1.0 | 4.0 | 0.00 | 0.00 | 0.00 | 1016.8 | |
| 20260506025529 | 60 | 259 | 1.0 | 3.0 | 0.00 | 0.00 | 0.00 | 1016.8 | |
| 20260506025026 | 60 | 292 | 1.0 | 3.0 | 0.00 | 0.00 | 0.00 | 1016.8 | |
| 20260506024551 | 60 | 291 | 1.0 | 4.0 | 0.00 | 0.00 | 0.00 | 1016.8 | |
| 20260506024026 | 61 | 286 | 0.0 | 4.0 | 0.00 | 0.00 | 0.00 | 1016.7 | |
| 20260506023526 | 60 | 268 | 2.0 | 4.0 | 0.00 | 0.00 | 0.00 | 1016.6 | |
| 20260506023044 | 61 | 281 | 1.0 | 4.0 | 0.00 | 0.00 | 0.00 | 1016.5 | |
| 20260506022530 | 61 | 286 | 0.0 | 3.0 | 0.00 | 0.00 | 0.00 | 1016.5 | |
| 20260506022027 | 61 | 0 | 0.0 | 4.0 | 0.00 | 0.00 | 0.00 | 1016.7 | |
| 20260506021538 | 62 | 0 | 0.0 | 4.0 | 0.00 | 0.00 | 0.00 | 1016.6 | |
| 20260506021026 | 61 | 0 | 1.0 | 5.0 | 0.00 | 0.00 | 0.00 | 1016.7 | |
| 20260506020526 | 61 | 283 | 1.0 | 6.0 | 0.00 | 0.00 | 0.00 | 1016.6 | |
| 20260506020040 | 61 | 283 | 1.0 | 6.0 | 0.00 | 0.00 | 0.00 | 1016.6 | |
| 20260506015526 | 61 | 277 | 2.0 | 6.0 | 0.00 | 0.00 | 0.00 | 1016.7 | |
| 20260506015029 | 62 | 292 | 1.0 | 4.0 | 0.00 | 0.00 | 0.00 | 1016.7 | |
| 20260506014537 | 62 | 295 | 0.0 | 4.0 | 0.00 | 0.00 | 0.00 | 1016.7 | |
| 20260506014026 | 62 | 0 | 1.0 | 4.0 | 0.00 | 0.00 | 0.00 | 1016.6 | |
| 20260506013526 | 62 | 291 | 1.0 | 5.0 | 0.00 | 0.00 | 0.00 | 1016.5 | |
| 20260506013038 | 62 | 210 | 1.0 | 5.0 | 0.00 | 0.00 | 0.00 | 1016.6 | |
| 20260506012524 | 62 | 284 | 1.0 | 5.0 | 0.00 | 0.00 | 0.00 | 1016.6 | |
| 20260506012026 | 62 | 0 | 1.0 | 5.0 | 0.00 | 0.00 | 0.00 | 1016.6 | |
| 20260506011602 | 62 | 309 | 2.0 | 5.0 | 0.00 | 0.00 | 0.00 | 1016.5 | |
| 20260506011026 | 63 | 311 | 1.0 | 5.0 | 0.00 | 0.00 | 0.00 | 1016.7 | |
| 20260506010526 | 63 | 268 | 0.0 | 5.0 | 0.00 | 0.00 | 0.00 | 1016.6 | |
| 20260506010037 | 63 | 268 | 1.0 | 5.0 | 0.00 | 0.00 | 0.00 | 1016.6 | |
| 20260506005525 | 63 | 311 | 1.0 | 5.0 | 0.00 | 0.00 | 0.00 | 1016.5 | |
| 20260506005025 | 63 | 268 | 1.0 | 3.0 | 0.00 | 0.00 | 0.00 | 1016.7 | |
| 20260506004552 | 64 | 0 | 0.0 | 3.0 | 0.00 | 0.00 | 0.00 | 1016.6 | |
| 20260506004026 | 64 | 252 | 0.0 | 3.0 | 0.00 | 0.00 | 0.00 | 1016.7 | |
| 20260506003524 | 64 | 243 | 1.0 | 4.0 | 0.00 | 0.00 | 0.00 | 1016.7 | |
| 20260506003036 | 64 | 64 | 1.0 | 4.0 | 0.00 | 0.00 | 0.00 | 1016.6 | |
| 20260506002524 | 65 | 49 | 0.0 | 3.0 | 0.00 | 0.00 | 0.00 | 1016.6 | |
| 20260506002024 | 64 | 0 | 1.0 | 3.0 | 0.00 | 0.00 | 0.00 | 1016.8 | |
| 20260506001544 | 65 | 141 | 0.0 | 3.0 | 0.00 | 0.00 | 0.00 | 1016.7 | |
| 20260506001027 | 64 | 134 | 1.0 | 4.0 | 0.00 | 0.00 | 0.00 | 1016.8 | |
| 20260506000527 | 64 | 0 | 0.0 | 6.0 | 0.00 | 0.00 | 0.00 | 1016.9 | |
| 20260506000108 | 64 | 205 | 1.0 | 6.0 | 0.00 | 0.00 | 0.00 | 1017.1 | |
| 20260505235527 | 64 | 305 | 1.0 | 4.0 | 0.00 | 0.00 | 0.00 | 1017.0 | |
| 20260505235027 | 64 | 207 | 1.0 | 4.0 | 0.00 | 0.00 | 0.00 | 1017.1 | |
| 20260505234544 | 64 | 268 | 1.0 | 4.0 | 0.00 | 0.00 | 0.00 | 1016.9 | |
| 20260505234027 | 64 | 170 | 0.0 | 2.0 | 0.00 | 0.00 | 0.00 | 1017.0 | |
| 20260505233528 | 64 | 183 | 0.0 | 4.0 | 0.00 | 0.00 | 0.00 | 1017.1 | |
| 20260505233037 | 64 | 259 | 1.0 | 4.0 | 0.00 | 0.00 | 0.00 | 1017.0 | |
| 20260505232526 | 64 | 0 | 1.0 | 5.0 | 0.00 | 0.00 | 0.00 | 1017.1 | |
| 20260505232024 | 65 | 247 | 1.0 | 5.0 | 0.00 | 0.00 | 0.00 | 1017.1 | |
| 20260505231537 | 64 | 252 | 1.0 | 5.0 | 0.00 | 0.00 | 0.00 | 1017.0 | |
| 20260505231024 | 65 | 299 | 1.0 | 5.0 | 0.00 | 0.00 | 0.00 | 1017.0 | |
| 20260505230524 | 65 | 0 | 1.0 | 5.0 | 0.00 | 0.00 | 0.00 | 1017.1 | |
| 20260505230058 | 68 | 286 | 1.0 | 5.0 | 0.00 | 0.00 | 0.00 | 1017.0 | |
| 20260505225530 | 67 | 261 | 1.0 | 5.0 | 0.00 | 0.00 | 0.00 | 1017.0 | |
| 20260505225024 | 69 | 322 | 1.0 | 5.0 | 0.00 | 0.00 | 0.00 | 1017.0 | |
| 20260505224541 | 70 | 250 | 1.0 | 5.0 | 0.00 | 0.00 | 0.00 | 1017.0 | |
| 20260505224023 | 72 | 76 | 1.0 | 6.0 | 0.00 | 0.00 | 0.00 | 1017.2 | |
| 20260505223525 | 71 | 157 | 1.0 | 6.0 | 0.00 | 0.00 | 0.00 | 1017.2 | |
| 20260505223039 | 71 | 0 | 1.0 | 4.0 | 0.00 | 0.00 | 0.00 | 1017.1 | |
| 20260505222529 | 72 | 268 | 1.0 | 4.0 | 0.00 | 0.00 | 0.00 | 1017.2 |